Year,Month,Day,Hour,Minute,Value (Times are PST for temperature in C)
2018,08,20,00,00,13.20
2018,08,20,00,01,13.20
2018,08,20,00,02,13.20
2018,08,20,00,03,13.20
2018,08,20,00,04,13.20
2018,08,20,00,05,13.20
2018,08,20,00,06,13.10
2018,08,20,00,07,13.10
2018,08,20,00,08,13.10
2018,08,20,00,09,13.10
2018,08,20,00,10,13.10
2018,08,20,00,11,13.10
2018,08,20,00,12,13.10
2018,08,20,00,13,13.10
2018,08,20,00,14,13.10
2018,08,20,00,15,13.00
2018,08,20,00,16,13.00
2018,08,20,00,17,13.00
2018,08,20,00,18,13.00
2018,08,20,00,19,13.00
2018,08,20,00,20,13.00
2018,08,20,00,21,13.00
2018,08,20,00,22,13.00
2018,08,20,00,23,13.00
2018,08,20,00,24,13.00
2018,08,20,00,25,13.00
2018,08,20,00,26,13.00
2018,08,20,00,27,13.00
2018,08,20,00,28,13.00
2018,08,20,00,29,13.00
2018,08,20,00,30,13.00
2018,08,20,00,31,13.00
2018,08,20,00,32,13.00
2018,08,20,00,33,13.00
2018,08,20,00,34,13.00
2018,08,20,00,35,13.00
2018,08,20,00,36,13.10
2018,08,20,00,37,13.10
2018,08,20,00,38,13.10
2018,08,20,00,39,13.10
2018,08,20,00,40,13.10
2018,08,20,00,41,13.10
2018,08,20,00,42,13.10
2018,08,20,00,43,13.20
2018,08,20,00,44,13.20
2018,08,20,00,45,13.20
2018,08,20,00,46,13.20
2018,08,20,00,47,13.30
2018,08,20,00,48,13.30
2018,08,20,00,49,13.30
2018,08,20,00,50,13.30
2018,08,20,00,51,13.30
2018,08,20,00,52,13.30
2018,08,20,00,53,13.30
2018,08,20,00,54,13.30
2018,08,20,00,55,13.30
2018,08,20,00,56,13.30
2018,08,20,00,57,13.30
2018,08,20,00,58,13.30
2018,08,20,00,59,13.30
2018,08,20,01,00,13.30
2018,08,20,01,01,13.30
2018,08,20,01,02,13.30
2018,08,20,01,03,13.30
2018,08,20,01,04,13.30
2018,08,20,01,05,13.30
2018,08,20,01,06,13.30
2018,08,20,01,07,13.40
2018,08,20,01,08,13.40
2018,08,20,01,09,13.40
2018,08,20,01,10,13.40
2018,08,20,01,11,13.40
2018,08,20,01,12,13.40
2018,08,20,01,13,13.40
2018,08,20,01,14,13.40
2018,08,20,01,15,13.40
2018,08,20,01,16,13.40
2018,08,20,01,17,13.40
2018,08,20,01,18,13.40
2018,08,20,01,19,13.40
2018,08,20,01,20,13.40
2018,08,20,01,21,13.40
2018,08,20,01,22,13.50
2018,08,20,01,23,13.40
2018,08,20,01,24,13.40
2018,08,20,01,25,13.40
2018,08,20,01,26,13.40
2018,08,20,01,27,13.40
2018,08,20,01,28,13.40
2018,08,20,01,29,13.40
2018,08,20,01,30,13.40
2018,08,20,01,31,13.40
2018,08,20,01,32,13.40
2018,08,20,01,33,13.40
2018,08,20,01,34,13.40
2018,08,20,01,35,13.40
2018,08,20,01,36,13.40
2018,08,20,01,37,13.40
2018,08,20,01,38,13.40
2018,08,20,01,39,13.50
2018,08,20,01,40,13.50
2018,08,20,01,41,13.50
2018,08,20,01,42,13.60
2018,08,20,01,43,13.60
2018,08,20,01,44,13.70
2018,08,20,01,45,13.70
2018,08,20,01,46,13.80
2018,08,20,01,47,13.90
2018,08,20,01,48,13.90
2018,08,20,01,49,13.90
2018,08,20,01,50,14.00
2018,08,20,01,51,14.00
2018,08,20,01,52,14.00
2018,08,20,01,53,14.10
2018,08,20,01,54,14.10
2018,08,20,01,55,14.20
2018,08,20,01,56,14.20
2018,08,20,01,57,14.20
2018,08,20,01,58,14.20
2018,08,20,01,59,14.20
2018,08,20,02,00,14.20
2018,08,20,02,01,14.20
2018,08,20,02,02,14.30
2018,08,20,02,03,14.30
2018,08,20,02,04,14.30
2018,08,20,02,05,14.30
2018,08,20,02,06,14.40
2018,08,20,02,07,14.40
2018,08,20,02,08,14.40
2018,08,20,02,09,14.50
2018,08,20,02,10,14.50
2018,08,20,02,11,14.50
2018,08,20,02,12,14.50
2018,08,20,02,13,14.50
2018,08,20,02,14,14.60
2018,08,20,02,15,14.60
2018,08,20,02,16,14.60
2018,08,20,02,17,14.70
2018,08,20,02,18,14.70
2018,08,20,02,19,14.70
2018,08,20,02,20,14.70
2018,08,20,02,21,14.80
2018,08,20,02,22,14.80
2018,08,20,02,23,14.80
2018,08,20,02,24,14.80
2018,08,20,02,25,14.80
2018,08,20,02,26,14.80
2018,08,20,02,27,14.80
2018,08,20,02,28,14.80
2018,08,20,02,29,14.80
2018,08,20,02,30,14.80
2018,08,20,02,31,14.80
2018,08,20,02,32,14.80
2018,08,20,02,33,14.90
2018,08,20,02,34,14.90
2018,08,20,02,35,14.90
2018,08,20,02,36,15.00
2018,08,20,02,37,15.00
2018,08,20,02,38,15.00
2018,08,20,02,39,15.00
2018,08,20,02,40,15.00
2018,08,20,02,41,15.10
2018,08,20,02,42,15.10
2018,08,20,02,43,15.10
2018,08,20,02,44,15.10
2018,08,20,02,45,15.10
2018,08,20,02,46,15.10
2018,08,20,02,47,15.10
2018,08,20,02,48,15.10
2018,08,20,02,49,15.10
2018,08,20,02,50,15.10
2018,08,20,02,51,15.20
2018,08,20,02,52,15.20
2018,08,20,02,53,15.20
2018,08,20,02,54,15.20
2018,08,20,02,55,15.20
2018,08,20,02,56,15.20
2018,08,20,02,57,15.20
2018,08,20,02,58,15.20
2018,08,20,02,59,15.20
2018,08,20,03,00,15.20
2018,08,20,03,01,15.20
2018,08,20,03,02,15.20
2018,08,20,03,03,15.20
2018,08,20,03,04,15.20
2018,08,20,03,05,15.30
2018,08,20,03,06,15.30
2018,08,20,03,07,15.30
2018,08,20,03,08,15.30
2018,08,20,03,09,15.30
2018,08,20,03,10,15.30
2018,08,20,03,11,15.30
2018,08,20,03,12,15.40
2018,08,20,03,13,15.40
2018,08,20,03,14,15.40
2018,08,20,03,15,15.40
2018,08,20,03,16,15.40
2018,08,20,03,17,15.40
2018,08,20,03,18,15.40
2018,08,20,03,19,15.40
2018,08,20,03,20,15.40
2018,08,20,03,21,15.40
2018,08,20,03,22,15.40
2018,08,20,03,23,15.40
2018,08,20,03,24,15.30
2018,08,20,03,25,15.30
2018,08,20,03,26,15.30
2018,08,20,03,27,15.30
2018,08,20,03,28,15.30
2018,08,20,03,29,15.30
2018,08,20,03,30,15.30
2018,08,20,03,31,15.30
2018,08,20,03,32,15.30
2018,08,20,03,33,15.30
2018,08,20,03,34,15.30
2018,08,20,03,35,15.30
2018,08,20,03,36,15.30
2018,08,20,03,37,15.30
2018,08,20,03,38,15.30
2018,08,20,03,39,15.30
2018,08,20,03,40,15.30
2018,08,20,03,41,15.30
2018,08,20,03,42,15.30
2018,08,20,03,43,15.30
2018,08,20,03,44,15.30
2018,08,20,03,45,15.20
2018,08,20,03,46,15.20
2018,08,20,03,47,15.20
2018,08,20,03,48,15.20
2018,08,20,03,49,15.10
2018,08,20,03,50,15.10
2018,08,20,03,51,15.00
2018,08,20,03,52,14.90
2018,08,20,03,53,14.90
2018,08,20,03,54,14.80
2018,08,20,03,55,14.80
2018,08,20,03,56,14.70
2018,08,20,03,57,14.60
2018,08,20,03,58,14.60
2018,08,20,03,59,14.50
2018,08,20,04,00,14.40
2018,08,20,04,01,14.30
2018,08,20,04,02,14.20
2018,08,20,04,03,14.10
2018,08,20,04,04,13.90
2018,08,20,04,05,13.90
2018,08,20,04,06,13.80
2018,08,20,04,07,13.70
2018,08,20,04,08,13.70
2018,08,20,04,09,13.60
2018,08,20,04,10,13.50
2018,08,20,04,11,13.50
2018,08,20,04,12,13.40
2018,08,20,04,13,13.40
2018,08,20,04,14,13.40
2018,08,20,04,15,13.30
2018,08,20,04,16,13.30
2018,08,20,04,17,13.30
2018,08,20,04,18,13.30
2018,08,20,04,19,13.30
2018,08,20,04,20,13.30
2018,08,20,04,21,13.30
2018,08,20,04,22,13.30
2018,08,20,04,23,13.30
2018,08,20,04,24,13.30
2018,08,20,04,25,13.30
2018,08,20,04,26,13.30
2018,08,20,04,27,13.40
2018,08,20,04,28,13.40
2018,08,20,04,29,13.40
2018,08,20,04,30,13.40
2018,08,20,04,31,13.40
2018,08,20,04,32,13.40
2018,08,20,04,33,13.50
2018,08,20,04,34,13.50
2018,08,20,04,35,13.50
2018,08,20,04,36,13.50
2018,08,20,04,37,13.60
2018,08,20,04,38,13.60
2018,08,20,04,39,13.70
2018,08,20,04,40,13.70
2018,08,20,04,41,13.80
2018,08,20,04,42,13.90
2018,08,20,04,43,14.00
2018,08,20,04,44,14.00
2018,08,20,04,45,14.10
2018,08,20,04,46,14.20
2018,08,20,04,47,14.20
2018,08,20,04,48,14.20
2018,08,20,04,49,14.30
2018,08,20,04,50,14.40
2018,08,20,04,51,14.40
2018,08,20,04,52,14.50
2018,08,20,04,53,14.50
2018,08,20,04,54,14.60
2018,08,20,04,55,14.70
2018,08,20,04,56,14.80
2018,08,20,04,57,14.90
2018,08,20,04,58,15.00
2018,08,20,04,59,15.10
2018,08,20,05,00,15.20
2018,08,20,05,01,15.30
2018,08,20,05,02,15.40
2018,08,20,05,03,15.50
2018,08,20,05,04,15.50
2018,08,20,05,05,15.60
2018,08,20,05,06,15.70
2018,08,20,05,07,15.80
2018,08,20,05,08,15.80
2018,08,20,05,09,15.90
2018,08,20,05,10,15.90
2018,08,20,05,11,16.00
2018,08,20,05,12,16.10
2018,08,20,05,13,16.10
2018,08,20,05,14,16.10
2018,08,20,05,15,16.20
2018,08,20,05,16,16.20
2018,08,20,05,17,16.20
2018,08,20,05,18,16.20
2018,08,20,05,19,16.20
2018,08,20,05,20,16.20
2018,08,20,05,21,16.30
2018,08,20,05,22,16.20
2018,08,20,05,23,16.20
2018,08,20,05,24,16.20
2018,08,20,05,25,16.20
2018,08,20,05,26,16.20
2018,08,20,05,27,16.10
2018,08,20,05,28,16.10
2018,08,20,05,29,16.10
2018,08,20,05,30,16.10
2018,08,20,05,31,16.10
2018,08,20,05,32,16.00
2018,08,20,05,33,15.90
2018,08,20,05,34,15.90
2018,08,20,05,35,15.80
2018,08,20,05,36,15.80
2018,08,20,05,37,15.80
2018,08,20,05,38,15.80
2018,08,20,05,39,15.80
2018,08,20,05,40,15.70
2018,08,20,05,41,15.70
2018,08,20,05,42,15.70
2018,08,20,05,43,15.70
2018,08,20,05,44,15.60
2018,08,20,05,45,15.60
2018,08,20,05,46,15.60
2018,08,20,05,47,15.60
2018,08,20,05,48,15.60
2018,08,20,05,49,15.50
2018,08,20,05,50,15.50
2018,08,20,05,51,15.50
2018,08,20,05,52,15.50
2018,08,20,05,53,15.50
2018,08,20,05,54,15.40
2018,08,20,05,55,15.40
2018,08,20,05,56,15.40
2018,08,20,05,57,15.30
2018,08,20,05,58,15.30
2018,08,20,05,59,15.30
2018,08,20,06,00,15.30
2018,08,20,06,01,15.30
2018,08,20,06,02,15.20
2018,08,20,06,03,15.20
2018,08,20,06,04,15.20
2018,08,20,06,05,15.10
2018,08,20,06,06,15.10
2018,08,20,06,07,15.10
2018,08,20,06,08,15.00
2018,08,20,06,09,15.00
2018,08,20,06,10,15.00
2018,08,20,06,11,14.90
2018,08,20,06,12,14.90
2018,08,20,06,13,14.90
2018,08,20,06,14,14.90
2018,08,20,06,15,14.80
2018,08,20,06,16,14.80
2018,08,20,06,17,14.80
2018,08,20,06,18,14.80
2018,08,20,06,19,14.80
2018,08,20,06,20,14.80
2018,08,20,06,21,14.80
2018,08,20,06,22,14.80
2018,08,20,06,23,14.80
2018,08,20,06,24,14.70
2018,08,20,06,25,14.70
2018,08,20,06,26,14.60
2018,08,20,06,27,14.60
2018,08,20,06,28,14.60
2018,08,20,06,29,14.60
2018,08,20,06,30,14.60
2018,08,20,06,31,14.60
2018,08,20,06,32,14.50
2018,08,20,06,33,14.50
2018,08,20,06,34,14.50
2018,08,20,06,35,14.50
2018,08,20,06,36,14.50
2018,08,20,06,37,14.50
2018,08,20,06,38,14.50
2018,08,20,06,39,14.40
2018,08,20,06,40,14.40
2018,08,20,06,41,14.40
2018,08,20,06,42,14.40
2018,08,20,06,43,14.40
2018,08,20,06,44,14.40
2018,08,20,06,45,14.40
2018,08,20,06,46,14.40
2018,08,20,06,47,14.40
2018,08,20,06,48,14.40
2018,08,20,06,49,14.40
2018,08,20,06,50,14.50
2018,08,20,06,51,14.50
2018,08,20,06,52,14.50
2018,08,20,06,53,14.50
2018,08,20,06,54,14.50
2018,08,20,06,55,14.50
2018,08,20,06,56,14.60
2018,08,20,06,57,14.60
2018,08,20,06,58,14.60
2018,08,20,06,59,14.60
2018,08,20,07,00,14.70
2018,08,20,07,01,14.70
2018,08,20,07,02,14.70
2018,08,20,07,03,14.80
2018,08,20,07,04,14.80
2018,08,20,07,05,14.80
2018,08,20,07,06,14.90
2018,08,20,07,07,14.90
2018,08,20,07,08,15.00
2018,08,20,07,09,15.00
2018,08,20,07,10,15.00
2018,08,20,07,11,15.10
2018,08,20,07,12,15.10
2018,08,20,07,13,15.10
2018,08,20,07,14,15.10
2018,08,20,07,15,15.20
2018,08,20,07,16,15.20
2018,08,20,07,17,15.20
2018,08,20,07,18,15.30
2018,08,20,07,19,15.30
2018,08,20,07,20,15.30
2018,08,20,07,21,15.30
2018,08,20,07,22,15.30
2018,08,20,07,23,15.30
2018,08,20,07,24,15.40
2018,08,20,07,25,15.40
2018,08,20,07,26,15.40
2018,08,20,07,27,15.50
2018,08,20,07,28,15.50
2018,08,20,07,29,15.50
2018,08,20,07,30,15.60
2018,08,20,07,31,15.60
2018,08,20,07,32,15.70
2018,08,20,07,33,15.70
2018,08,20,07,34,15.70
2018,08,20,07,35,15.80
2018,08,20,07,36,15.80
2018,08,20,07,37,15.80
2018,08,20,07,38,15.80
2018,08,20,07,39,15.80
2018,08,20,07,40,15.80
2018,08,20,07,41,15.90
2018,08,20,07,42,15.90
2018,08,20,07,43,15.90
2018,08,20,07,44,15.90
2018,08,20,07,45,15.90
2018,08,20,07,46,16.00
2018,08,20,07,47,16.10
2018,08,20,07,48,16.10
2018,08,20,07,49,16.10
2018,08,20,07,50,16.10
2018,08,20,07,51,16.10
2018,08,20,07,52,16.10
2018,08,20,07,53,16.10
2018,08,20,07,54,16.10
2018,08,20,07,55,16.10
2018,08,20,07,56,16.20
2018,08,20,07,57,16.20
2018,08,20,07,58,16.20
2018,08,20,07,59,16.20
2018,08,20,08,00,16.30
2018,08,20,08,01,16.30
2018,08,20,08,02,16.30
2018,08,20,08,03,16.30
2018,08,20,08,04,16.30
2018,08,20,08,05,16.40
2018,08,20,08,06,16.40
2018,08,20,08,07,16.40
2018,08,20,08,08,16.40
2018,08,20,08,09,16.40
2018,08,20,08,10,16.40
2018,08,20,08,11,16.40
2018,08,20,08,12,16.40
2018,08,20,08,13,16.40
2018,08,20,08,14,16.40
2018,08,20,08,15,16.40
2018,08,20,08,16,16.40
2018,08,20,08,17,16.50
2018,08,20,08,18,16.60
2018,08,20,08,19,16.60
2018,08,20,08,20,16.60
2018,08,20,08,21,16.60
2018,08,20,08,22,16.60
2018,08,20,08,23,16.70
2018,08,20,08,24,16.70
2018,08,20,08,25,16.70
2018,08,20,08,26,16.70
2018,08,20,08,27,16.70
2018,08,20,08,28,16.70
2018,08,20,08,29,16.70
2018,08,20,08,30,16.80
2018,08,20,08,31,16.80
2018,08,20,08,32,16.80
2018,08,20,08,33,16.80
2018,08,20,08,34,16.90
2018,08,20,08,35,16.90
2018,08,20,08,36,16.90
2018,08,20,08,37,16.90
2018,08,20,08,38,16.90
2018,08,20,08,39,16.90
2018,08,20,08,40,16.90
2018,08,20,08,41,17.00
2018,08,20,08,42,17.00
2018,08,20,08,43,17.00
2018,08,20,08,44,17.00
2018,08,20,08,45,17.00
2018,08,20,08,46,17.00
2018,08,20,08,47,17.10
2018,08,20,08,48,17.10
2018,08,20,08,49,17.10
2018,08,20,08,50,17.10
2018,08,20,08,51,17.10
2018,08,20,08,52,17.10
2018,08,20,08,53,17.10
2018,08,20,08,54,17.10
2018,08,20,08,55,17.10
2018,08,20,08,56,17.10
2018,08,20,08,57,17.10
2018,08,20,08,58,17.10
2018,08,20,08,59,17.10
2018,08,20,09,00,17.10
2018,08,20,09,01,17.10
2018,08,20,09,02,17.20
2018,08,20,09,03,17.20
2018,08,20,09,04,17.20
2018,08,20,09,05,17.20
2018,08,20,09,06,17.30
2018,08,20,09,07,17.30
2018,08,20,09,08,17.30
2018,08,20,09,09,17.30
2018,08,20,09,10,17.30
2018,08,20,09,11,17.30
2018,08,20,09,12,17.30
2018,08,20,09,13,17.30
2018,08,20,09,14,17.40
2018,08,20,09,15,17.40
2018,08,20,09,16,17.40
2018,08,20,09,17,17.40
2018,08,20,09,18,17.40
2018,08,20,09,19,17.50
2018,08,20,09,20,17.50
2018,08,20,09,21,17.50
2018,08,20,09,22,17.60
2018,08,20,09,23,17.60
2018,08,20,09,24,17.70
2018,08,20,09,25,17.70
2018,08,20,09,26,17.70
2018,08,20,09,27,17.80
2018,08,20,09,28,17.90
2018,08,20,09,29,17.90
2018,08,20,09,30,18.00
2018,08,20,09,31,18.10
2018,08,20,09,32,18.10
2018,08,20,09,33,18.20
2018,08,20,09,34,18.20
2018,08,20,09,35,18.30
2018,08,20,09,36,18.40
2018,08,20,09,37,18.40
2018,08,20,09,38,18.50
2018,08,20,09,39,18.50
2018,08,20,09,40,18.50
2018,08,20,09,41,18.60
2018,08,20,09,42,18.60
2018,08,20,09,43,18.60
2018,08,20,09,44,18.60
2018,08,20,09,45,18.70
2018,08,20,09,46,18.70
2018,08,20,09,47,18.70
2018,08,20,09,48,18.80
2018,08,20,09,49,18.80
2018,08,20,09,50,18.80
2018,08,20,09,51,18.80
2018,08,20,09,52,18.80
2018,08,20,09,53,18.90
2018,08,20,09,54,18.90
2018,08,20,09,55,18.90
2018,08,20,09,56,18.90
2018,08,20,09,57,18.90
2018,08,20,09,58,18.90
2018,08,20,09,59,18.90
2018,08,20,10,00,18.90
2018,08,20,10,01,18.90
2018,08,20,10,02,18.90
2018,08,20,10,03,18.90
2018,08,20,10,04,18.90
2018,08,20,10,05,18.90
2018,08,20,10,06,18.90
2018,08,20,10,07,18.90
2018,08,20,10,08,18.90
2018,08,20,10,09,18.90
2018,08,20,10,10,18.90
2018,08,20,10,11,18.90
2018,08,20,10,12,18.90
2018,08,20,10,13,18.90
2018,08,20,10,14,18.90
2018,08,20,10,15,18.90
2018,08,20,10,16,18.90
2018,08,20,10,17,18.90
2018,08,20,10,18,18.90
2018,08,20,10,19,18.90
2018,08,20,10,20,18.90
2018,08,20,10,21,18.90
2018,08,20,10,22,19.10
2018,08,20,10,23,19.10
2018,08,20,10,24,19.10
2018,08,20,10,25,19.10
2018,08,20,10,26,19.20
2018,08,20,10,27,19.30
2018,08,20,10,28,19.40
2018,08,20,10,29,19.40
2018,08,20,10,30,19.50
2018,08,20,10,31,19.60
2018,08,20,10,32,19.70
2018,08,20,10,33,19.80
2018,08,20,10,34,19.90
2018,08,20,10,35,19.90
2018,08,20,10,36,20.00
2018,08,20,10,37,20.10
2018,08,20,10,38,20.20
2018,08,20,10,39,20.20
2018,08,20,10,40,20.20
2018,08,20,10,41,20.30
2018,08,20,10,42,20.30
2018,08,20,10,43,20.40
2018,08,20,10,44,20.40
2018,08,20,10,45,20.50
2018,08,20,10,46,20.50
2018,08,20,10,47,20.50
2018,08,20,10,48,20.50
2018,08,20,10,49,20.40
2018,08,20,10,50,20.40
2018,08,20,10,51,20.40
2018,08,20,10,52,20.40
2018,08,20,10,53,20.40
2018,08,20,10,54,20.50
2018,08,20,10,55,20.50
2018,08,20,10,56,20.60
2018,08,20,10,57,20.60
2018,08,20,10,58,20.60
2018,08,20,10,59,20.70
2018,08,20,11,00,20.70
2018,08,20,11,01,20.70
2018,08,20,11,02,20.80
2018,08,20,11,03,20.70
2018,08,20,11,04,20.70
2018,08,20,11,05,20.70
2018,08,20,11,06,20.70
2018,08,20,11,07,20.60
2018,08,20,11,08,20.60
2018,08,20,11,09,20.60
2018,08,20,11,10,20.60
2018,08,20,11,11,20.60
2018,08,20,11,12,20.60
2018,08,20,11,13,20.60
2018,08,20,11,14,20.60
2018,08,20,11,15,20.60
2018,08,20,11,16,20.60
2018,08,20,11,17,20.60
2018,08,20,11,18,20.60
2018,08,20,11,19,20.60
2018,08,20,11,20,20.60
2018,08,20,11,21,20.60
2018,08,20,11,22,20.60
2018,08,20,11,23,20.70
2018,08,20,11,24,20.70
2018,08,20,11,25,20.70
2018,08,20,11,26,20.80
2018,08,20,11,27,20.80
2018,08,20,11,28,20.80
2018,08,20,11,29,20.90
2018,08,20,11,30,20.90
2018,08,20,11,31,20.90
2018,08,20,11,32,21.00
2018,08,20,11,33,21.00
2018,08,20,11,34,21.00
2018,08,20,11,35,21.10
2018,08,20,11,36,21.10
2018,08,20,11,37,21.10
2018,08,20,11,38,21.10
2018,08,20,11,39,21.00
2018,08,20,11,40,21.00
2018,08,20,11,41,21.00
2018,08,20,11,42,21.10
2018,08,20,11,43,21.10
2018,08,20,11,44,21.20
2018,08,20,11,45,21.20
2018,08,20,11,46,21.30
2018,08,20,11,47,21.30
2018,08,20,11,48,21.40
2018,08,20,11,49,21.50
2018,08,20,11,50,21.60
2018,08,20,11,51,21.60
2018,08,20,11,52,21.60
2018,08,20,11,53,21.60
2018,08,20,11,54,21.60
2018,08,20,11,55,21.70
2018,08,20,11,56,21.80
2018,08,20,11,57,21.90
2018,08,20,11,58,21.90
2018,08,20,11,59,22.00
2018,08,20,12,00,22.10
2018,08,20,12,01,22.10
2018,08,20,12,02,22.10
2018,08,20,12,03,22.20
2018,08,20,12,04,22.20
2018,08,20,12,05,22.30
2018,08,20,12,06,22.30
2018,08,20,12,07,22.40
2018,08,20,12,08,22.50
2018,08,20,12,09,22.60
2018,08,20,12,10,22.70
2018,08,20,12,11,22.90
2018,08,20,12,12,22.90
2018,08,20,12,13,23.10
2018,08,20,12,14,23.10
2018,08,20,12,15,23.20
2018,08,20,12,16,23.20
2018,08,20,12,17,23.30
2018,08,20,12,18,23.30
2018,08,20,12,19,23.30
2018,08,20,12,20,23.30
2018,08,20,12,21,23.30
2018,08,20,12,22,23.40
2018,08,20,12,23,23.40
2018,08,20,12,24,23.50
2018,08,20,12,25,23.60
2018,08,20,12,26,23.70
2018,08,20,12,27,23.70
2018,08,20,12,28,23.70
2018,08,20,12,29,23.80
2018,08,20,12,30,23.90
2018,08,20,12,31,24.00
2018,08,20,12,32,24.10
2018,08,20,12,33,24.10
2018,08,20,12,34,24.20
2018,08,20,12,35,24.20
2018,08,20,12,36,24.20
2018,08,20,12,37,24.20
2018,08,20,12,38,24.30
2018,08,20,12,39,24.40
2018,08,20,12,40,24.40
2018,08,20,12,41,24.50
2018,08,20,12,42,24.60
2018,08,20,12,43,24.70
2018,08,20,12,44,24.70
2018,08,20,12,45,24.70
2018,08,20,12,46,24.70
2018,08,20,12,47,24.80
2018,08,20,12,48,24.80
2018,08,20,12,49,24.80
2018,08,20,12,50,24.80
2018,08,20,12,51,24.80
2018,08,20,12,52,24.80
2018,08,20,12,53,24.70
2018,08,20,12,54,24.70
2018,08,20,12,55,24.80
2018,08,20,12,56,24.70
2018,08,20,12,57,24.70
2018,08,20,12,58,24.80
2018,08,20,12,59,24.80
2018,08,20,13,00,24.80
2018,08,20,13,01,24.90
2018,08,20,13,02,25.00
2018,08,20,13,03,25.00
2018,08,20,13,04,25.10
2018,08,20,13,05,25.20
2018,08,20,13,06,25.20
2018,08,20,13,07,25.20
2018,08,20,13,08,25.30
2018,08,20,13,09,25.30
2018,08,20,13,10,25.30
2018,08,20,13,11,25.30
2018,08,20,13,12,25.40
2018,08,20,13,13,25.40
2018,08,20,13,14,25.50
2018,08,20,13,15,25.50
2018,08,20,13,16,25.50
2018,08,20,13,17,25.50
2018,08,20,13,18,25.50
2018,08,20,13,19,25.50
2018,08,20,13,20,25.50
2018,08,20,13,21,25.50
2018,08,20,13,22,25.40
2018,08,20,13,23,25.40
2018,08,20,13,24,25.40
2018,08,20,13,25,25.40
2018,08,20,13,26,25.50
2018,08,20,13,27,25.50
2018,08,20,13,28,25.50
2018,08,20,13,29,25.50
2018,08,20,13,30,25.50
2018,08,20,13,31,25.50
2018,08,20,13,32,25.50
2018,08,20,13,33,25.60
2018,08,20,13,34,25.60
2018,08,20,13,35,25.60
2018,08,20,13,36,25.60
2018,08,20,13,37,25.60
2018,08,20,13,38,25.60
2018,08,20,13,39,25.60
2018,08,20,13,40,25.60
2018,08,20,13,41,25.50
2018,08,20,13,42,25.50
2018,08,20,13,43,25.50
2018,08,20,13,44,25.50
2018,08,20,13,45,25.50
2018,08,20,13,46,25.40
2018,08,20,13,47,25.40
2018,08,20,13,48,25.40
2018,08,20,13,49,25.50
2018,08,20,13,50,25.50
2018,08,20,13,51,25.40
2018,08,20,13,52,25.40
2018,08,20,13,53,25.40
2018,08,20,13,54,25.40
2018,08,20,13,55,25.40
2018,08,20,13,56,25.40
2018,08,20,13,57,25.40
2018,08,20,13,58,25.40
2018,08,20,13,59,25.40
2018,08,20,14,00,25.50
2018,08,20,14,01,25.50
2018,08,20,14,02,25.60
2018,08,20,14,03,25.60
2018,08,20,14,04,25.70
2018,08,20,14,05,25.70
2018,08,20,14,06,25.80
2018,08,20,14,07,25.80
2018,08,20,14,08,25.90
2018,08,20,14,09,25.90
2018,08,20,14,10,25.90
2018,08,20,14,11,25.90
2018,08,20,14,12,25.90
2018,08,20,14,13,25.90
2018,08,20,14,14,25.90
2018,08,20,14,15,25.90
2018,08,20,14,16,26.00
2018,08,20,14,17,26.00
2018,08,20,14,18,26.00
2018,08,20,14,19,26.00
2018,08,20,14,20,26.10
2018,08,20,14,21,26.10
2018,08,20,14,22,26.10
2018,08,20,14,23,26.00
2018,08,20,14,24,26.00
2018,08,20,14,25,25.90
2018,08,20,14,26,25.90
2018,08,20,14,27,25.80
2018,08,20,14,28,25.80
2018,08,20,14,29,25.80
2018,08,20,14,30,25.80
2018,08,20,14,31,25.70
2018,08,20,14,32,25.70
2018,08,20,14,33,25.70
2018,08,20,14,34,25.70
2018,08,20,14,35,25.70
2018,08,20,14,36,25.70
2018,08,20,14,37,25.70
2018,08,20,14,38,25.70
2018,08,20,14,39,25.70
2018,08,20,14,40,25.70
2018,08,20,14,41,25.70
2018,08,20,14,42,25.70
2018,08,20,14,43,25.80
2018,08,20,14,44,25.80
2018,08,20,14,45,25.80
2018,08,20,14,46,25.90
2018,08,20,14,47,25.90
2018,08,20,14,48,25.90
2018,08,20,14,49,25.90
2018,08,20,14,50,26.00
2018,08,20,14,51,26.00
2018,08,20,14,52,26.10
2018,08,20,14,53,26.20
2018,08,20,14,54,26.20
2018,08,20,14,55,26.20
2018,08,20,14,56,26.30
2018,08,20,14,57,26.30
2018,08,20,14,58,26.30
2018,08,20,14,59,26.30
2018,08,20,15,00,26.40
2018,08,20,15,01,26.50
2018,08,20,15,02,26.60
2018,08,20,15,03,26.60
2018,08,20,15,04,26.60
2018,08,20,15,05,26.70
2018,08,20,15,06,26.70
2018,08,20,15,07,26.70
2018,08,20,15,08,26.70
2018,08,20,15,09,26.70
2018,08,20,15,10,26.70
2018,08,20,15,11,26.70
2018,08,20,15,12,26.70
2018,08,20,15,13,26.80
2018,08,20,15,14,26.80
2018,08,20,15,15,26.90
2018,08,20,15,16,26.90
2018,08,20,15,17,26.90
2018,08,20,15,18,26.90
2018,08,20,15,19,26.90
2018,08,20,15,20,26.90
2018,08,20,15,21,26.80
2018,08,20,15,22,26.80
2018,08,20,15,23,26.80
2018,08,20,15,24,26.80
2018,08,20,15,25,26.70
2018,08,20,15,26,26.70
2018,08,20,15,27,26.70
2018,08,20,15,28,26.70
2018,08,20,15,29,26.80
2018,08,20,15,30,26.80
2018,08,20,15,31,26.80
2018,08,20,15,32,26.90
2018,08,20,15,33,27.00
2018,08,20,15,34,27.10
2018,08,20,15,35,27.20
2018,08,20,15,36,27.20
2018,08,20,15,37,27.20
2018,08,20,15,38,27.20
2018,08,20,15,39,27.20
2018,08,20,15,40,27.20
2018,08,20,15,41,27.20
2018,08,20,15,42,27.20
2018,08,20,15,43,27.30
2018,08,20,15,44,27.30
2018,08,20,15,45,27.30
2018,08,20,15,46,27.30
2018,08,20,15,47,27.30
2018,08,20,15,48,27.30
2018,08,20,15,49,27.30
2018,08,20,15,50,27.30
2018,08,20,15,51,27.30
2018,08,20,15,52,27.30
2018,08,20,15,53,27.40
2018,08,20,15,54,27.50
2018,08,20,15,55,27.60
2018,08,20,15,56,27.60
2018,08,20,15,57,27.70
2018,08,20,15,58,27.70
2018,08,20,15,59,27.70
2018,08,20,16,00,27.80
2018,08,20,16,01,27.80
2018,08,20,16,02,27.80
2018,08,20,16,03,27.80
2018,08,20,16,04,27.80
2018,08,20,16,05,27.90
2018,08,20,16,06,27.90
2018,08,20,16,07,28.00
2018,08,20,16,08,28.00
2018,08,20,16,09,28.00
2018,08,20,16,10,28.00
2018,08,20,16,11,28.00
2018,08,20,16,12,27.90
2018,08,20,16,13,27.90
2018,08,20,16,14,27.90
2018,08,20,16,15,27.90
2018,08,20,16,16,27.90
2018,08,20,16,17,27.90
2018,08,20,16,18,27.90
2018,08,20,16,19,27.90
2018,08,20,16,20,27.90
2018,08,20,16,21,27.80
2018,08,20,16,22,27.80
2018,08,20,16,23,27.80
2018,08,20,16,24,27.80
2018,08,20,16,25,27.70
2018,08,20,16,26,27.70
2018,08,20,16,27,27.70
2018,08,20,16,28,27.70
2018,08,20,16,29,27.70
2018,08,20,16,30,27.70
2018,08,20,16,31,27.70
2018,08,20,16,32,27.70
2018,08,20,16,33,27.80
2018,08,20,16,34,27.80
2018,08,20,16,35,27.80
2018,08,20,16,36,27.90
2018,08,20,16,37,27.90
2018,08,20,16,38,28.00
2018,08,20,16,39,28.00
2018,08,20,16,40,28.00
2018,08,20,16,41,28.00
2018,08,20,16,42,28.00
2018,08,20,16,43,28.00
2018,08,20,16,44,28.00
2018,08,20,16,45,28.00
2018,08,20,16,46,28.00
2018,08,20,16,47,28.00
2018,08,20,16,48,28.00
2018,08,20,16,49,28.00
2018,08,20,16,50,28.00
2018,08,20,16,51,28.00
2018,08,20,16,52,28.00
2018,08,20,16,53,28.00
2018,08,20,16,54,28.00
2018,08,20,16,55,28.10
2018,08,20,16,56,28.10
2018,08,20,16,57,28.20
2018,08,20,16,58,28.20
2018,08,20,16,59,28.20
2018,08,20,17,00,28.20
2018,08,20,17,01,28.20
2018,08,20,17,02,28.20
2018,08,20,17,03,28.20
2018,08,20,17,04,28.20
2018,08,20,17,05,28.20
2018,08,20,17,06,28.20
2018,08,20,17,07,28.30
2018,08,20,17,08,28.30
2018,08,20,17,09,28.40
2018,08,20,17,10,28.40
2018,08,20,17,11,28.50
2018,08,20,17,12,28.60
2018,08,20,17,13,28.60
2018,08,20,17,14,28.60
2018,08,20,17,15,28.70
2018,08,20,17,16,28.70
2018,08,20,17,17,28.70
2018,08,20,17,18,28.80
2018,08,20,17,19,28.80